[[{"header":{"parameterUnit":"m.s-1","parameterCategory":1,"la1":30.2991,"la2":30.254,"lo1":-89.0895,"lo2":-89.0444,"dy":0.0017,"dx":0.0017,"nx":28,"ny":28,"refTime":"2024-06-18T09:00:00:Z","depth":0,"parameterNumber":2,"parameterNumberName":"U-component_of_WINDS"},"data":[0,0,0,0,0,0,0,0,0,0,0,0,0,0,0,0,0,0,0,0,0,0,0,0,0,0,0,0,0,0,0,0,0,0,0,0,0,0,0,0,0,0,0,0,0,0,0,0,0,0,0,0,0,0,0,0,0,0,-9.3584,-9.3584,0,-9.3565,-9.3565,-9.3565,-9.3341,-9.3335,-9.3329,-9.3324,-9.3305,-9.3309,-9.3314,0,0,0,0,0,0,0,0,0,0,0,0,0,-9.3427,-9.3431,-9.3584,-9.3584,-9.3584,-9.3565,-9.3565,-9.3565,-9.3342,-9.3335,-9.3328,-9.3321,-9.3303,-9.3309,-9.3314,0,0,0,0,0,0,0,0,0,0,0,0,0,-9.3461,-9.3433,-9.3584,-9.347,-9.346,-9.3566,-9.3565,-9.3565,-9.3343,-9.3334,-9.3326,-9.3318,-9.3301,-9.3308,-9.3315,-9.3529,0,0,-9.3337,-9.334,0,0,0,0,0,0,0,0,-9.3459,-9.3467,-9.3487,-9.3478,-9.3467,-9.3447,-9.3502,-9.3553,-9.3345,-9.3387,-9.3324,-9.3314,-9.3359,-9.3361,-9.3376,-9.3528,-9.3527,-9.3338,-9.3342,-9.3345,-9.3347,0,0,0,0,0,0,0,-9.3457,-9.3466,-9.3577,-9.3488,-9.3475,-9.342,-9.3415,-9.3511,-9.3421,-9.3383,-9.3367,-9.3368,-9.3351,-9.3369,-9.3374,-9.3527,-9.3337,-9.3344,-9.3348,-9.3351,-9.3852,-9.386,0,0,0,0,0,0,-9.3471,-9.3466,-9.3577,-9.3576,-9.3442,-9.343,-9.3424,-9.3462,-9.3419,-9.3405,-9.3375,-9.3357,-9.3361,-9.3365,-9.3372,-9.3616,-9.3345,-9.3352,-9.3356,-9.3843,-9.3854,-9.3863,0,0,0,0,0,0,-9.3468,-9.3483,-9.3578,-9.3517,-9.3524,-9.3441,-9.3485,-9.3466,-9.3483,-9.3413,-9.3396,-9.3409,-9.3355,-9.3362,-9.3491,-9.3613,-9.3355,-9.3361,-9.3832,-9.3846,-9.3859,-9.411,0,0,0,0,0,0,-9.3465,-9.3483,-9.3563,-9.352,-9.3529,-9.3698,-9.3493,-9.3472,-9.3496,-9.3473,-9.3441,-9.3427,-9.3349,-9.3482,-9.3498,-9.3618,-9.3367,-9.3821,-9.3838,-9.3854,-9.409,-9.413,-9.4164,0,0,0,0,0,-9.346,-9.3635,-9.3568,-9.3583,-9.3627,-9.3705,-9.371,-9.3616,-9.3507,-9.3586,-9.3541,-9.3428,-9.3599,-9.3497,-9.3513,-9.3637,-9.3812,-9.3833,-9.3853,-9.4073,-9.4122,-9.4164,0,0,0,0,0,0,-9.3694,-9.3627,-9.3552,-9.3719,-9.372,-9.3667,-9.3764,-9.3671,-9.3702,-9.3679,-9.3561,-9.3556,-9.3703,-9.3684,-9.3572,-9.3841,-9.3686,-9.371,-9.3847,-9.3893,-9.393,-9.3929,-9.3373,0,0,0,0,0,-9.3766,-9.3835,-9.3773,-9.3926,-9.393,-9.3849,-9.3879,-9.3807,-9.3802,-9.3801,-9.3765,-9.3766,-9.3818,-9.3856,-9.3901,-9.4088,-9.4076,-9.4182,-9.4219,-9.425,-9.4271,-9.4366,-9.4411,-9.393,-9.393,-9.393,0,0,-9.3913,-9.3885,-9.3936,-9.3972,-9.3964,-9.4038,-9.385,-9.3936,-9.3989,-9.3814,-9.3932,-9.3908,-9.39,-9.4059,-9.4127,-9.4047,-9.4402,-9.4276,-9.4301,-9.4305,-9.4392,-9.4438,-9.4478,-9.3944,-9.3941,-9.3939,0,0,-9.4218,-9.4206,-9.433,-9.4326,-9.4316,-9.4261,-9.4292,-9.4254,-9.423,-9.4348,-9.4218,-9.4281,-9.4375,-9.4374,-9.4386,-9.4694,-9.459,-9.4713,-9.4905,-9.5,-9.5037,-9.507,-9.5177,-9.5217,-9.4735,-9.4736,-9.4736,0,-9.4402,-9.4507,-9.4406,-9.4501,-9.452,-9.4366,-9.4491,-9.4493,-9.4499,-9.4515,-9.4427,-9.4541,-9.4526,-9.4681,-9.4756,-9.4773,-9.4802,-9.4713,-9.504,-9.5072,-9.5102,-9.5202,-9.5242,-9.475,-9.4749,-9.4747,-9.4746,0,-9.4732,-9.4808,-9.491,-9.4919,-9.4951,-9.5061,-9.4976,-9.502,-9.4947,-9.4901,-9.5023,-9.4999,-9.5036,-9.5069,-9.4998,-9.5214,-9.5165,-9.5061,-9.4901,-9.5164,-9.5255,-9.5293,-9.4771,-9.4766,-9.4762,-9.4758,0,0,-9.518,-9.5133,-9.5172,-9.5173,-9.5153,-9.5209,-9.5313,-9.5349,-9.5388,-9.5399,-9.548,-9.5566,-9.5469,-9.5483,-9.5411,-9.5495,-9.5737,-9.538,-9.5378,-9.5444,-9.5971,-9.6046,-9.6092,-9.5671,-9.5678,-9.5683,-9.597,0,-9.547,-9.5642,-9.5555,-9.5738,-9.5805,-9.5663,-9.5752,-9.575,-9.5711,-9.5763,-9.572,-9.578,-9.565,-9.5657,-9.5735,-9.5692,-9.5841,-9.567,-9.5743,-9.5747,-9.5744,-9.614,-9.622,-9.6491,-9.6006,-9.6012,-9.6016,0,-9.5831,-9.5856,-9.6046,-9.6012,-9.6037,-9.6119,-9.6144,-9.6197,-9.6191,-9.6157,-9.6175,-9.6084,-9.6182,-9.6029,-9.6162,-9.6048,-9.6074,-9.6058,-9.6066,-9.6065,-9.5894,-9.6146,-9.6576,-9.6615,-9.6073,-9.6068,-9.6064,0,-9.6133,-9.6216,-9.6338,-9.6345,-9.631,-9.6371,-9.6359,-9.6345,-9.6372,-9.6396,-9.6412,-9.6448,-9.6467,-9.6497,-9.6417,-9.6314,-9.6561,-9.6401,-9.6533,-9.6536,-9.6587,-9.6584,-9.7023,-9.6613,-9.6613,-9.6612,-9.6611,0,-9.6463,-9.6584,-9.6473,-9.6549,-9.668,-9.658,-9.6713,-9.6686,-9.6675,-9.6742,-9.6623,-9.6689,-9.6583,-9.6639,-9.6579,-9.6696,-9.6707,-9.6681,-9.6663,-9.6689,-9.6692,-9.67,-9.6677,-9.6623,-9.662,-9.6618,-9.6616,0,-9.682,-9.6752,-9.6876,-9.6833,-9.6826,-9.6924,-9.6887,-9.6955,-9.6909,-9.6996,-9.7011,-9.694,-9.6999,-9.6925,-9.6978,-9.6937,-9.7097,-9.7053,-9.7099,-9.7084,-9.7218,-9.7205,-9.7674,-9.7729,-9.7289,-9.7294,-9.7297,0,-9.7033,-9.7122,-9.709,-9.7126,-9.7121,-9.7182,-9.7209,-9.7116,-9.7149,-9.7151,-9.7218,-9.7268,-9.7302,-9.7404,-9.7356,-9.7397,-9.7349,-9.7511,-9.7354,-9.7378,-9.7347,-9.734,-9.7347,-9.7542,-9.7547,-9.7551,-9.7555,0,-9.7416,-9.7378,-9.7422,-9.7455,-9.7491,-9.7512,-9.7524,-9.7562,-9.7464,-9.7508,-9.7567,-9.7594,-9.7648,-9.7698,-9.7725,-9.7713,-9.7618,-9.7606,-9.7637,-9.7662,-9.7683,-9.7669,-9.7181,-9.7594,-9.759,-9.7587,-9.7585,-9.7583,-9.7704,-9.7776,-9.7764,-9.7817,-9.7817,-9.7831,-9.7892,-9.7855,-9.7903,-9.7939,-9.7882,-9.7956,-9.7949,-9.7976,-9.7975,-9.8031,-9.7961,-9.8009,-9.8019,-9.8031,-9.805,-9.7679,-9.8037,-9.8035,-9.8034,-9.8033,-9.8032,0,-9.8077,-9.8063,-9.8113,-9.8134,-9.8176,-9.8085,-9.8094,-9.8135,-9.8201,-9.8203,-9.8239,-9.8307,-9.8355,-9.8314,-9.8354,-9.8407,-9.8364,-9.842,-9.8412,-9.8411,-9.8112,-9.8078,-9.8454,-9.8454,-9.8454,-9.8453,-9.8453,-9.8453,-9.8276,-9.8392,-9.8353,-9.8468,-9.8453,-9.8524,-9.8537,-9.855,-9.855,-9.8631,-9.8671,-9.8644,-9.8628,-9.8666,-9.8706,-9.8692,-9.8711,-9.8782,-9.8753,-9.8473,-9.8432,-9.8392,-9.836,-9.8788,-9.8788,-9.9045,-9.9048,-9.905]},{"header":{"parameterUnit":"m.s-1","parameterCategory":1,"la1":30.2991,"la2":30.254,"lo1":-89.0895,"lo2":-89.0444,"dy":0.0017,"dx":0.0017,"nx":28,"ny":28,"refTime":"2024-06-18T09:00:00:Z","depth":0,"parameterNumber":3,"parameterNumberName":"V-component_of_WINDS"},"data":[0,0,0,0,0,0,0,0,0,0,0,0,0,0,0,0,0,0,0,0,0,0,0,0,0,0,0,0,0,0,0,0,0,0,0,0,0,0,0,0,0,0,0,0,0,0,0,0,0,0,0,0,0,0,0,0,0,0,1.7725,1.7726,0,1.7799,1.78,1.7801,1.7821,1.782,1.782,1.7819,1.7893,1.7895,1.7898,0,0,0,0,0,0,0,0,0,0,0,0,0,1.7601,1.7603,1.7725,1.7726,1.7727,1.7799,1.78,1.7801,1.7821,1.782,1.782,1.7819,1.7892,1.7895,1.7898,0,0,0,0,0,0,0,0,0,0,0,0,0,1.7663,1.7604,1.7725,1.7746,1.7748,1.7799,1.78,1.7801,1.7821,1.782,1.782,1.7819,1.7891,1.7895,1.7898,1.7933,0,0,1.7909,1.791,0,0,0,0,0,0,0,0,1.7659,1.7667,1.7742,1.7744,1.7747,1.78,1.7783,1.7845,1.7821,1.7793,1.7819,1.7819,1.7862,1.7868,1.7883,1.7936,1.7939,1.7909,1.7911,1.7913,1.7914,0,0,0,0,0,0,0,1.7655,1.7664,1.7754,1.7743,1.7746,1.7751,1.7759,1.7795,1.783,1.7796,1.7797,1.7806,1.7864,1.788,1.7885,1.794,1.7909,1.7912,1.7914,1.7916,1.8028,1.8029,0,0,0,0,0,0,1.7647,1.766,1.7752,1.7757,1.7701,1.7754,1.7763,1.7784,1.783,1.7837,1.7806,1.7806,1.7874,1.7881,1.7888,1.7933,1.7913,1.7916,1.7918,1.8027,1.8028,1.8029,0,0,0,0,0,0,1.7644,1.7655,1.7749,1.7709,1.7721,1.7757,1.778,1.7785,1.7802,1.7838,1.7844,1.7816,1.7874,1.7883,1.7922,1.7936,1.7918,1.7921,1.8026,1.8027,1.8029,1.8022,0,0,0,0,0,0,1.7641,1.7654,1.7667,1.7709,1.7723,1.7782,1.7781,1.7787,1.7808,1.7809,1.7849,1.7855,1.7874,1.7917,1.7926,1.794,1.7924,1.8025,1.8027,1.8028,1.8021,1.8023,1.8025,0,0,0,0,0,1.7636,1.7662,1.7668,1.7679,1.7741,1.7783,1.7791,1.7812,1.7809,1.7823,1.7847,1.7854,1.7933,1.7921,1.7931,1.7947,1.8024,1.8026,1.8028,1.8021,1.8023,1.8025,0,0,0,0,0,0,1.7619,1.7667,1.7675,1.7715,1.7745,1.7786,1.7804,1.7814,1.7845,1.7844,1.7869,1.7878,1.7916,1.7935,1.7921,1.7984,1.7979,1.7983,1.797,1.7972,1.7974,1.7968,1.7927,0,0,0,0,0,1.762,1.765,1.7691,1.7722,1.7737,1.7768,1.7787,1.7801,1.7833,1.7845,1.7872,1.7902,1.7934,1.7954,1.7985,1.8025,1.8034,1.8041,1.8042,1.8044,1.8047,1.8071,1.8074,1.8035,1.8035,1.8035,0,0,1.7622,1.7652,1.7669,1.7719,1.7744,1.7775,1.7778,1.781,1.7833,1.785,1.7889,1.791,1.7945,1.7985,1.8004,1.8002,1.806,1.8046,1.8047,1.8049,1.8073,1.8077,1.808,1.8037,1.8036,1.8036,0,0,1.7642,1.7667,1.7697,1.7723,1.7761,1.7782,1.7789,1.783,1.7845,1.7885,1.7898,1.7926,1.798,1.8005,1.8025,1.8058,1.8066,1.8067,1.8075,1.8098,1.8101,1.8104,1.8116,1.812,1.807,1.807,1.807,0,1.7639,1.7686,1.7711,1.7743,1.7765,1.7783,1.7814,1.7837,1.7883,1.7898,1.7896,1.7966,1.7991,1.8038,1.8046,1.8061,1.807,1.8062,1.8099,1.8102,1.8105,1.8117,1.8122,1.807,1.807,1.807,1.807,0,1.7682,1.7714,1.7734,1.778,1.7804,1.7835,1.7865,1.7886,1.79,1.7921,1.7962,1.7993,1.8032,1.8044,1.8057,1.8094,1.8092,1.8094,1.8089,1.8108,1.812,1.8125,1.807,1.807,1.807,1.807,0,0,1.769,1.7751,1.7758,1.778,1.7825,1.7851,1.7883,1.7922,1.7941,1.7973,1.8001,1.8048,1.8051,1.8074,1.8089,1.811,1.8135,1.811,1.8111,1.8114,1.8179,1.8177,1.8182,1.8141,1.8142,1.8143,1.8176,0,1.7716,1.7775,1.7799,1.7848,1.7879,1.7898,1.7927,1.7958,1.7979,1.8009,1.8033,1.8066,1.8067,1.8081,1.8102,1.8127,1.8148,1.8125,1.8168,1.8169,1.8158,1.8188,1.8185,1.8215,1.8181,1.8182,1.8182,0,1.7753,1.7787,1.7838,1.7882,1.7896,1.7921,1.796,1.7988,1.8024,1.8039,1.8065,1.808,1.8116,1.811,1.816,1.8144,1.8163,1.8178,1.818,1.8184,1.8176,1.8193,1.8225,1.8229,1.8189,1.8189,1.8188,0,1.7755,1.7813,1.7852,1.7871,1.7922,1.7939,1.7961,1.7997,1.802,1.8054,1.8069,1.8106,1.8126,1.8155,1.818,1.8173,1.8228,1.8224,1.8241,1.8241,1.8251,1.825,1.8287,1.8264,1.8264,1.8264,1.8263,0,1.778,1.7811,1.7854,1.7878,1.7914,1.7942,1.7977,1.8,1.8032,1.8061,1.808,1.8107,1.8139,1.817,1.819,1.8229,1.8238,1.825,1.8255,1.8249,1.8247,1.8261,1.826,1.8265,1.8264,1.8264,1.8264,0,1.7788,1.7818,1.7862,1.7908,1.792,1.7945,1.7984,1.8008,1.8032,1.8069,1.8079,1.8115,1.8153,1.8182,1.823,1.8244,1.8285,1.829,1.8273,1.8276,1.8292,1.829,1.8339,1.8347,1.8318,1.8318,1.8318,0,1.7802,1.7827,1.7876,1.7898,1.792,1.7954,1.7978,1.8008,1.8032,1.8076,1.8095,1.8135,1.8168,1.8228,1.8258,1.8296,1.8302,1.8317,1.8308,1.8301,1.8303,1.8301,1.8304,1.8318,1.8318,1.8318,1.8318,0,1.7825,1.7839,1.7873,1.7913,1.7942,1.7975,1.8007,1.8024,1.8059,1.8085,1.8125,1.8151,1.8202,1.8241,1.8283,1.8306,1.8318,1.8321,1.8327,1.832,1.831,1.8316,1.8277,1.8319,1.8319,1.8319,1.8319,1.8319,1.7837,1.786,1.7899,1.7937,1.7966,1.7997,1.8023,1.805,1.8084,1.8128,1.8144,1.8185,1.8222,1.828,1.8303,1.8336,1.8336,1.8344,1.8347,1.8348,1.8348,1.8305,1.8344,1.8344,1.8344,1.8344,1.8344,0,1.7861,1.7888,1.7922,1.7969,1.7999,1.801,1.8047,1.8072,1.8108,1.8142,1.8176,1.8222,1.8261,1.8296,1.8336,1.8356,1.8363,1.8366,1.8364,1.837,1.8346,1.8337,1.836,1.836,1.836,1.836,1.836,1.836,1.7877,1.7918,1.7937,1.7993,1.8019,1.8061,1.8082,1.8111,1.8138,1.819,1.8223,1.8246,1.8281,1.8324,1.8361,1.837,1.8384,1.8386,1.8396,1.8373,1.8371,1.8369,1.8361,1.8388,1.8389,1.8418,1.8418,1.8418]}]]